Regional Weather Roundup
Issued by NWS Wakefield, VA

Home | Current Version | Previous Version | Graphics & Text | Print | Product List | Glossary On
Versions: 1 2 3 4 5 6 7 8 9 10 11 12 13 14 15 16 17 18 19 20 21 22 23 24 25 26 27 28 29 30 31 32 33 34 35 36 37 38 39 40 41 42 43 44 45 46 47 48 49 50
000
ASUS41 KAKQ 310810
RWRAKQ

REGIONAL WEATHER ROUNDUP
NATIONAL WEATHER SERVICE WAKEFIELD VA
300 AM EST SAT JAN 31 2015

Note: "fair" indicates few or no clouds below 12,000 feet with no
significant weather and/or obstructions to visibility. * = Denotes
station may not report precipitation (e.g., rain,snow,etc.),
thunder or fog.

VAZ042-051-052>054-056-310900-
NORTHERN VIRGINIA

CITY           SKY/WX    TMP DP  RH WIND       PRES   REMARKS
WASH NATIONAL  CLEAR     22   3  44 NW18G29   30.31S WCI   7
DULLES         PTCLDY    18   3  52 NW9G20    30.30R
FORT BELVOIR   CLEAR     20   3  47 NW14G20   30.31S WCI   6
QUANTICO       CLEAR     21   4  47 VRB6      30.33S
FREDERICKSBRG* CLEAR     23   6  50 N7        30.30S
STAFFORD*      CLEAR     19   4  51 CALM      30.34S
WARRENTON      CLEAR     21  10  62 NW13      30.29S WCI   9
CULPEPER*      CLEAR     21   5  49 NE3       30.29S
MANASSAS*      CLEAR     19   9  63 NW13G21   30.31R WCI   7
LEESBURG*      CLEAR     19   9  63 NW13G23   30.30S WCI   7
WINCHESTER     CLEAR     19   3  49 NW10G16   30.29S WCI   8
FRONT ROYAL*   FAIR      19   3  49 NE3       30.28R
LURAY*         FAIR      23   7  50 SW6       30.27S
$$

VAZ048-049-060>072-079>083-310900-
CENTRAL AND SOUTH CENTRAL VIRGINIA

CITY           SKY/WX    TMP DP  RH WIND       PRES   REMARKS
RICHMOND       CLEAR     23   7  50 N8        30.29R
CHESTERFIELD*  FAIR      23   0  36 N3        30.30R
PETERSBURG*    CLEAR     24   9  53 NW3       30.31R
HANOVER        CLEAR     20   7  57 CALM      30.31R
TAPPAHANNOCK*  CLEAR     22   1  40 NW6       30.30S
QUINTON*       FAIR      22   6  49 NW7       30.30R
CHARLOTTSVILLE CLEAR     23   2  40 VRB3      30.27R
GORDONSVILLE*  FAIR      22   4  44 CALM      30.28S
ORANGE*        CLEAR     18  14  86 CALM      30.30S
LOUISA*        CLEAR     12   9  85 CALM      30.27S
BUMPASS*       FAIR      21   7  55 CALM      30.28S
FARMVILLE*     CLEAR     23  10  56 CALM      30.28S
CREWE*         FAIR      24   7  49 W5        30.28S
FORT PICKETT*  FAIR      22   8  54 NW5       30.28R
CHASE CITY*    FAIR      26  13  57 CALM      30.29S
CLARKSVILLE*   FAIR      27  10  50 W3        30.29S
SOUTH HILL*    CLEAR     24  10  54 W3        30.35R
LAWRENCEVILLE* FAIR      24  10  54 CALM      30.28S
EMPORIA*       CLEAR     21  10  63 CALM      30.31S
$$

VAZ088>098-310900-
SOUTHEAST VIRGINIA

CITY           SKY/WX    TMP DP  RH WIND       PRES   REMARKS
NORFOLK        CLEAR     26   5  40 NW13G25   30.25S WCI  15
VIRGINIA BEACH CLEAR     27   6  41 NW24G36   30.23S WCI  12
NORFOLK NAVAL  CLEAR     28   7  41 NW18G25   30.28R WCI  15
WEST POINT*    CLEAR     25   4  39 NW9       30.30F
SALUDA*        FAIR      23   7  49 N23G29    30.26S WCI   7
NEWPORT NEWS   CLEAR     26   6  42 NW12      30.27S WCI  16
LANGLEY AFB    CLEAR     25   6  44 NW22      30.27R WCI  10
FORT EUSTIS    CLEAR     25   9  49 N10G22    30.25S WCI  15
WILLIAMSBURG*    N/A     27  10  50 N10G17    30.28S WCI  17
HR EXEC AP*    FAIR      25   7  46 NW5       30.29R
FRANKLIN*      CLEAR     25  10  54 N3        30.29R
WAKEFIELD      CLEAR     25   8  48 N5        30.29R
$$

VAZ020-022-025-037-045-310900-
WEST CENTRAL AND SOUTHWEST VIRGINIA

CITY           SKY/WX    TMP DP  RH WIND       PRES   REMARKS
STAUNTON*      CLEAR     17   6  61 CALM      30.27S
WAYNESBORO*    FAIR      20   0  40 NW6       30.23S
HOT SPRINGS VA CLEAR      9   3  75 NW17G23   30.06S WCI  -9
LYNCHBURG      CLEAR     15   9  76 CALM      30.27F
DANVILLE       CLEAR     21  10  62 SW3       30.32S
SOUTH BOSTON*  FAIR      25   7  46 W3        30.31S
MARTINSVILLE   CLEAR     24   8  50 CALM      30.31S
ROANOKE        CLEAR     23   4  44 CALM      30.29F
BLACKSBURG     CLEAR     18   9  68 W9        30.29S
DUBLIN*        CLEAR     22  10  60 NW5       30.28S
MARION*        CLEAR     21  10  61 W15       30.28F WCI   8
HILLSVILLE*    CLEAR     20   8  60 NW12      30.22S WCI   8
RICHLANDS*     FAIR      18   8  65 W5        30.28F
WISE*          CLEAR     19  12  73 CALM      30.30S
ABINGDON*      CLEAR     24  12  59 SW3       30.33S
$$

MDZ021>025-VAZ099-100-310900-
SOUTHERN MARYLAND AND THE DELMARVA PENINSULA

CITY           SKY/WX    TMP DP  RH WIND       PRES   REMARKS
PATUXENT RIVER CLEAR     21   4  47 NW31G39   30.26R WCI   2
BAY BRIDGE APT   N/A     21   3  45 NW17G29   30.27S WCI   7
LEONARDTOWN    CLEAR     21   3  45 NW8G16    30.28S
DOVER          CLEAR     18   2  50 W24G30    30.21R WCI   0
GEORGETOWN     CLEAR     20   2  45 NW17G29   30.21R WCI   5
EASTON         NOT AVBL
CAMBRIDGE      CLEAR     23   3  42 NW18G35   30.24R WCI   9
SALISBURY      CLEAR     23   4  44 NW13G25   30.21R WCI  11
OCEAN CITY     CLEAR     21   5  50 NW18G29   30.18R WCI   6
WALLOPS ISLAND FAIR      22   7  52 NW18G29   30.20R WCI   7
ACCOMACK*      PTCLDY    25   9  50 NW23G35   30.22S WCI  10
$$

NCZ012>017-030>032-310900-
NORTH CENTRAL AND EASTERN NORTH CAROLINA

CITY           SKY/WX    TMP DP  RH WIND       PRES   REMARKS
ROANOKE RAPIDS FAIR      28  12  50 W3        30.30R
RALEIGH        PTCLDY    27   8  44 NW5       30.32R
ELIZABETH CITY CLEAR     27  11  51 NW14G20   30.26S WCI  16
AHOSKIE*       CLEAR     27  10  49 CALM      30.30R
EDENTON*       CLEAR     29  13  50 NW7       30.27R
CURRITUCK*     CLEAR     28   9  45 NW5       30.25S
KILL DEVIL HLS CLEAR     29   9  43 NW12G23   30.22R WCI  19
MANTEO         CLEAR     28   9  43 N20G28    30.24S WCI  15
CAPE HATTERAS  CLEAR     32  13  45 NW14G28   30.23R WCI  22
TARBORO*       FAIR      27  13  55 W5        30.32R
GOLDSBORO      CLEAR     36  12  38 NW13G21   30.24R
WASHINGTON     CLEAR     28  13  54 NW3       30.29S
GREENVILLE     CLEAR     28  12  50 CALM      30.30S
NEW BERN       CLEAR     32  12  43 NW12      30.30R WCI  23
WILMINGTON     CLEAR     32  11  41 N12       30.30R WCI  23
$$

VAZ048-310900-
ELSEWHERE

CITY           SKY/WX    TMP DP  RH WIND       PRES   REMARKS
HARRISBURG PA  CLEAR     14  -2  49 NW17G26   30.26R WCI  -3
BALTIMORE      CLEAR     18   2  49 NW14G21   30.26S WCI   4
ANNAPOLIS      CLEAR     21   6  52 NW15G24   30.26R WCI   8
ANDREWS AFB    CLEAR     19   3  51 NW21G35   30.26S WCI   2
PHILADELPHIA   CLEAR     17  -2  43 NW21G29   30.20R WCI   0
HENDERSON NC   CLEAR     26   8  47 W6        30.29S
GREENSBORO     PTCLDY    25   8  48 NW5       30.29S
ROCKY MOUNT    CLEAR     28  10  46 NW9       30.31R
$$

VAZ100-310900-
MARINE

STATION/POSITION TIME  TEMP    WIND        PRES    WAVE   SWELL
                       AIR SEA DIR/SP/G            HT/PER HT/PER
                 (UTC) (F)     (DEG/KT/KT) (MB)    (FT/S) (FT/S)
BRANDYWINE LGT   0800   20 35  330/ 24/ 35 1021.6R
CAPE MAY NJ      0800   21 34              1020.8S
LEWES DE         0800   21 35  320/ 33/ 38 1021.7F
15NM E FENWICK I 0800   24 39              1019.4R   8/ 6
OCEAN-CITY-INLET 0800   23 37  330/ 13/ 19 1021.3R
WACHAPREAGUE VA  0800   24 35  300/  7/ 15 1023.0F
THOMAS POINT MD  0800   21 34  320/ 19/ 23 1025.7R
GOOSES REEF MD   0800   22     VRB 21/ 29  1023.7S
COVE POINT MD    0800   21     340/ 23/ 30 1024.3S
SOLOMONS ISLAND  0800      36                N/A
BISHOPS HEAD MD  0800   22 30  320/ 18/ 26 1023.7S
PINEY POINT MD   0800          340/ 34/ 39   N/A
POTOMAC MD       0800   24     330/ 23/ 29 1023.5S
CAMBRIDGE MD     0800   23 33  320/ 21/ 28 1023.9S
LEWISETTA VA     0800   23 34  330/ 21/ 27 1025.2S
RAPPAHANNOCK LGT 0800          320/ 28/ 35 1024.5R
STINGRAY PT      0800   25     330/ 21/ 25 1024.9R
YORK RVR RNG VA  0800   26     330/ 25/ 30 1024.1R
YORKTOWN VA      0800   26 38  330/ 19/ 25 1024.7S
JAMESTOWN VA     0800   24     360/ 14/ 17   N/A
DOMINION TERM VA 0800   27      20/  3/  9 1024.8S
KIPTOPEKE VA     0800      40  330/ 29/ 34   N/A
CHES BAY BRIDGE  0800   27 39  310/ 30/ 36 1024.0R
CAPE HENRY VA    0800   27     320/ 28/ 34 1022.7R
CHESAPEAKE LGHT  0700   27     320/ 35/ 39 1023.3R
WILLOUBY STN VA  0800   27     320/ 15/ 18 1025.0S
S CRANEY ISL VA  0800          330/ 14/ 23 1024.6S
CAPE HENRY BUOY  0800      42                N/A     7/ 5
1ST LANDING BUOY 0800   28     330/ 27/ 33 1023.5R
CAPE CHARLES BUO 0800      39                N/A     5/ 4   2/11
OFFSHORE WE BUOY 0800      43                N/A     9/ 7   2/14
64NM E OF VA BCH 0800   31 49  320/ 31/ 37 1020.3R  11/ 8
DUCK PIER NC     0800   30 42  330/ 23/ 27 1022.2R
44100 DUCK FRF   0800      44                N/A     9/ 6   2/11
44056 DUCK FRF   0800      42                N/A     7/ 7
OREGON INLET NC  0800   29 41  320/ 17/ 25 1023.2F
HATTERAS NC      0800   33 42  330/ 25/ 32 1023.8R



USA.gov is the U.S. government's official web portal to all federal, state and local government web resources and services.